Regional Weather Roundup
Issued by NWS

Home | Current Version | Previous Version | Text Only | Print | Product List | Glossary Off
Versions: 1 2 3 4 5 6 7 8 9 10 11 12 13 14 15 16 17 18 19 20 21 22 23 24 25 26 27 28 29 30 31 32 33 34 35 36 37 38 39 40 41 42 43 44 45 46 47 48 49 50

000
ASUS43 KMPX 231410
RWRMN
WEATHER ROUNDUP FOR MINNESOTA
NATIONAL WEATHER SERVICE TWIN CITIES/CHANHASSEN MN
900 AM CDT SUN JUL 23 2017


NOTE: "FAIR" INDICATES FEW OR NO CLOUDS BELOW 12,000 FEET WITH NO
SIGNIFICANT WEATHER AND/OR OBSTRUCTIONS TO VISIBILITY. N/A MEANS
CURRENT SKY AND/OR WEATHER CONDITIONS ARE NOT AVAILABLE.

MNZ060>063-068>070-231500-
   Twin Cities Metro

CITY           SKY/WX    TMP DP  RH WIND       PRES   REMARKS
TWIN CITIES    MOSUNNY   72  56  57 N8        29.89S
ST PAUL        SUNNY     71  60  68 N9        29.89S
CRYSTAL        SUNNY     70  55  59 NW13      29.88S
BLAINE         MOSUNNY   70  61  73 NW7       29.89S
LAKEVILLE      SUNNY     70  57  64 NW9       29.89S
EDEN PRAIRIE   SUNNY     72  58  61 NW14      29.89R
SOUTH ST PAUL  SUNNY     70  57  63 N10       29.89R
LAKE ELMO      FAIR      68  61  77 N7        29.90R
$$
MNZ001>005-007-008-013>017-022>024-027-028-231500-
   Northwest Minnesota

CITY           SKY/WX    TMP DP  RH WIND       PRES   REMARKS
BEMIDJI        CLOUDY    64  59  85 N8        29.96R
HALLOCK        MOSUNNY   64  61  88 N6        29.99S
ROSEAU         PTSUNNY   64  61  88 N8        29.99R
WARROAD        PTSUNNY   66  63  88 E8        29.99R
THIEF RVR FALL PTSUNNY   66  60  81 N9        29.99R
CROOKSTON      CLOUDY    63  61  94 N7        30.00R
FOSSTON        CLOUDY    61  59  94 N6        29.98S
DETROIT LAKES  CLOUDY    63  57  82 N7        29.99R
MOORHEAD       CLOUDY    64  61  88 N8        29.99R
PARK RAPIDS    CLOUDY    65  58  78 N10       29.96R
MAHNOMEN       CLOUDY    63  59  87 N8        29.98R
$$
MNZ006-009>011-018-025>026-231500-
   North Central Minnesota

CITY           SKY/WX    TMP DP  RH WIND       PRES   REMARKS
BAUDETTE       PTSUNNY   64  60  87 E6        29.98R
FLAG ISLAND    SUNNY     66  59  77 NE5       29.98S
INTL FALLS     CLOUDY    64  57  78 E9        29.97R
WASKISH        CLOUDY    63  61  94 NE6       29.97R
BIG FORK       CLOUDY    61  57  88 N3        29.95R
LONGVILLE      CLOUDY    64  59  82 N6        29.94R
GRAND RAPIDS   CLOUDY    62  58  86 N6        29.95R
CRANE LAKE     CLOUDY    61  57  88 NE3       29.97R
ORR            CLOUDY    61  55  82 CALM      29.93R
COOK           CLOUDY    59  57  94 CALM      29.95R
WALKER         CLOUDY    63  58  86 NW6       29.94S
$$
MNZ012-019>021-037-231500-
   Northeast Minnesota

CITY           SKY/WX    TMP DP  RH WIND       PRES   REMARKS
DULUTH         CLOUDY    56  56 100 NE6       29.92R FOG
ELY            CLOUDY    59  57  94 NE5       29.93R
HIBBING        CLOUDY    60  57  89 N10       29.93R
EVELETH        PTSUNNY   60  59  96 N6        29.93R
DULUTH HARBOR  CLOUDY    59  55  88 N5        29.91S
TWO HARBORS    CLOUDY    61  55  82 CALM      29.90R HAZE
GRAND MARAIS     N/A     57  56  96 SW6       29.89R
G MARAIS ARPRT CLOUDY    59  54  82 NE9       29.92R
$$
MNZ029>031-032-039>041-046>048-054>057-064-231500-
   West Central Minnesota

CITY           SKY/WX    TMP DP  RH WIND       PRES   REMARKS
FERGUS FALLS   CLOUDY    63  63 100 NW9       29.98R
WHEATON        CLOUDY    64  57  77 NW12      30.01R
MORRIS         SUNNY     66  59  77 N10       29.97R
ALEXANDRIA     PTSUNNY   66  59  78 NW9       29.97R
ELBOW LAKE     CLOUDY    62  60  93 W10       29.98R
WADENA         PTSUNNY   64  57  77 NW10      29.95S
GLENWOOD       MOSUNNY   64  59  82 NW12      29.97R
APPLETON       MOSUNNY   66  57  72 N14       29.97S
BENSON         MOSUNNY   68  57  68 N14G20    29.98R
ORTONVILLE     MOSUNNY   64  57  77 N10       29.99R
MADISON        PTSUNNY   70  61  73 NW13      29.99R
WILLMAR        FAIR      66  61  82 N13       29.96R
$$
MNZ033>034-036-042>043-049>051-058-059-231500-
   Central Minnesota

CITY           SKY/WX    TMP DP  RH WIND       PRES   REMARKS
ST CLOUD       MOSUNNY   66  60  81 NW12      29.91S
SAUK CENTRE    CLOUDY    65  58  77 NW14      29.95R
PAYNESVILLE    SUNNY     67  59  74 NW14      29.95R
AITKIN         CLOUDY    63  57  82 N10       29.91R
PINE RIVER     CLOUDY    64  59  82 NW6       29.97R
BRAINERD       CLOUDY    66  59  78 N10       29.93R
STAPLES        CLOUDY    63  55  77 NW12      29.94S
LONG PRAIRIE   CLOUDY    63  57  82 W10       29.95R
LITTLE FALLS   PTSUNNY   63  55  77 N3        29.93R
LITCHFIELD     SUNNY     70  61  73 N15       29.94R
BUFFALO        PTSUNNY   69  58  67 NW8       29.92S
MAPLE LAKE     CLOUDY    68  60  77 NW9       29.93R
HUTCHINSON     MOSUNNY   69  61  75 NW12      29.94S
$$
MNZ037-044-045-052-053-231500-
   East Central Minnesota

CITY           SKY/WX    TMP DP  RH WIND       PRES   REMARKS
PRINCETON      CLOUDY    66  61  82 W5        29.91S
MORA           PTSUNNY   64  59  82 CALM      29.91S
CAMBRIDGE      CLOUDY    68  57  68 NW5       29.89R
RUSH CITY      PTSUNNY   67  59  77 N8        29.90S
MOOSE LAKE     PTSUNNY   63  59  88 N5        29.89R
HINCKLEY       FAIR      64  59  82 N12       29.90S
CLOQUET        CLOUDY    57  55  94 CALM      29.91R
MCGREGOR       CLOUDY    63  59  88 N7        29.92R
$$
MNZ071>073-080-081-089-090-097-098-231500-
   Southwest Minnesota

CITY           SKY/WX    TMP DP  RH WIND       PRES   REMARKS
MONTEVIDEO     MOSUNNY   70  63  78 N10       29.98R
GRANITE FALLS  SUNNY     68  60  74 NW14      29.98S
CANBY          SUNNY     70  59  68 W12       30.00R
MARSHALL       SUNNY     67  60  78 NW13      29.99R
REDWOOD FALLS  SUNNY     69  59  70 NW13      29.95R
OLIVIA         SUNNY     68  59  73 NW10      29.95R
PIPESTONE      SUNNY     70  59  68 N7        30.01R
WINDOM         SUNNY     70  59  68 NW14      29.97S
WORTHINGTON    SUNNY     68  59  73 N16       29.99R
JACKSON        SUNNY     68  59  73 NW8G16    29.98R
SLAYTON        HVY RAIN  66  58  75 NW9       30.01R
$$
MNZ065>067-074>077-082>085-091>093-231500-
   South Central Minnesota

CITY           SKY/WX    TMP DP  RH WIND       PRES   REMARKS
MANKATO        SUNNY     69  60  73 NW10      29.93R
NEW ULM        SUNNY     70  59  68 NW12      29.94R
ST JAMES       SUNNY     68  61  77 NW10      29.96R
FAIRMONT       SUNNY     69  62  78 NW10G18   29.95R
GLENCOE        SUNNY     70  64  80 NW8       29.92S
FARIBAULT      SUNNY     70  61  73 NW7       29.91R
OWATONNA       SUNNY     70  63  78 NW9       29.91R
WASECA         SUNNY     70  61  73 NW10      29.93R
ALBERT LEA     SUNNY     70  61  73 N7        29.91R
$$
MNZ078>079-086>088-094>096-231500-
   Southeast Minnesota

CITY           SKY/WX    TMP DP  RH WIND       PRES   REMARKS
ROCHESTER      MOSUNNY   69  60  73 N13       29.89R
RED WING       MOSUNNY   72  57  60 NW6       29.87R
STANTON        SUNNY     71  59  65 NW12      29.88S
DODGE CENTER   MOSUNNY   70  59  68 NW9       29.90S
WINONA         MOSUNNY   72  68  88 NW3       29.86R
AUSTIN         MOSUNNY   72  63  73 N7        29.89S
PRESTON        MOSUNNY   69  62  79 N8        29.88S
$$
ABBREVIATIONS USED IN REMARKS
   TC - TEMPERATURES IN CELSIUS
  WCI - WIND CHILL INDEX
   HX - HEAT INDEX
  VSB - VISIBILITY
$$




USA.gov is the U.S. government's official web portal to all federal, state and local government web resources and services.